Location: La Chapelle-Gauthier
(48.5495°N, 2.8978°E)
Time: 22:24:28
(UTC+00:00)

Daily predictions for brighter satellites

Satellite Brightness Start Highest point End
(mag) Time Altitude Azimuth Time Altitude Azimuth Time Altitude Azimuth
Cosmos 2098 Rocket 3.4 16:18:57 10° S 16:23:13 58° E 16:28:14 10° NNE
USA 290 2.5 16:22:22 10° NNW 16:25:37 76° WSW 16:28:52 10° SSE
Cosmos 2208 Rocket 4.4 16:21:01 10° NNW 16:26:10 71° WSW 16:31:20 10° SSE
Cosmos 1782 2.5 16:22:36 10° S 16:26:10 75° E 16:29:46 10° NNE
Cosmos 1933 4.3 16:23:26 10° SE 16:26:35 25° E 16:29:45 10° NNE
Cosmos 2227 Rocket 2.4 16:24:06 10° NNW 16:29:38 52° NE 16:35:08 10° SE
Meteor 1-28 Rocket 3.4 16:27:09 10° NNE 16:30:20 40° E 16:33:29 10° S
Cosmos 2369 Rocket 4.3 16:28:35 10° WNW 16:32:11 17° NW 16:35:47 10° N
CBERS-1 4.0 16:27:19 10° SSE 16:32:24 71° ENE 16:37:31 10° N
Cosmos 2180 Rocket 4.5 16:34:27 10° S 16:40:32 70° E 16:46:42 10° NNE
CENTAUR R/B 3.7 16:35:07 10° W 16:40:43 36° NNW 16:47:39 10° NE
Cosmos 1697 Rocket 2.9 16:35:50 10° S 16:41:13 52° ESE 16:46:40 10° NE
Cosmos 2360 4.4 16:37:06 10° SSW 16:42:50 80° WNW 16:48:36 10° NNE
Cosmos 1626 Rocket 4.3 16:39:05 10° NNW 16:43:19 55° W 16:47:29 10° S
CZ-2D R/B 3.7 16:41:38 10° SE 16:44:17 25° ENE 16:46:57 10° N
NOSS 2-3 (C) 4.3 16:42:18 10° S 16:45:10 24° ESE 16:47:48 12° ENE
Cosmos 2266 Rocket 3.9 16:43:03 10° N 16:49:12 72° E 16:55:13 10° SSE
Cosmos 1656 4.4 16:45:10 10° SW 16:50:41 55° WNW 16:56:18 10° NNE
Cosmos 1606 Rocket 3.9 16:48:14 10° SSE 16:52:27 46° E 16:56:43 10° NNE
Cosmos 1503 Rocket 4.0 16:49:31 10° SSW 16:54:46 88° ESE 16:59:59 10° NNE
Lacrosse 5 rocket 2.7 16:53:31 10° WNW 16:56:29 22° N 16:58:51 13° NE
UNK 3.8 16:54:44 10° NNE 16:59:17 58° ESE 17:03:45 10° S
Cosmos 1484 Rocket 3.5 16:56:07 10° S 16:59:32 51° W 17:02:56 10° NNW
CZ-4C R/B 3.4 16:52:33 10° NW 16:59:32 70° SW 17:08:10 10° SSE
Thor Agena Rocket 3.6 16:55:30 10° SSE 17:00:42 89° ENE 17:05:53 10° NNW
Cosmos 1743 3.6 16:58:30 10° NNW 17:01:36 42° W 17:04:40 10° SSW
IRS-P3 4.4 16:58:23 10° SE 17:03:26 46° ENE 17:08:30 10° N
NOSS 2-3 (D) 3.5 17:00:51 10° SSW 17:04:24 47° SE 17:07:03 17° NE
NOSS 2-3 (E) 3.4 17:01:29 10° SSW 17:05:03 51° SE 17:07:43 17° NE
Cosmos 1354 Rocket 4.0 17:00:31 10° SSW 17:05:46 79° ESE 17:11:03 10° NNE
IGS 5A 4.1 17:03:05 10° S 17:06:59 57° W 17:10:55 10° NNW
Cosmos 1777 Rocket 4.4 17:02:50 10° SW 17:08:02 64° WNW 17:13:15 10° NNE
Cosmos-2242 4.1 17:06:03 10° SE 17:09:25 23° E 17:11:23 17° NE
Cosmos 2151 3.7 17:05:38 10° NNW 17:09:43 56° W 17:13:47 10° S
USA 238 DEB 3.9 17:03:59 10° S 17:09:43 46° ESE 17:14:48 15° NE
USA 238 3.9 17:04:07 10° S 17:09:51 45° ESE 17:14:54 15° NE
MOS 1 Rocket 3.6 17:05:28 10° SSE 17:10:20 55° ENE 17:15:28 10° N
Cosmos 1898 Rocket 4.3 17:09:15 10° SSE 17:13:38 29° E 17:16:31 18° NE
Gbstr 26 Del rocket 2.7 17:09:57 10° WSW 17:14:06 80° SSE 17:16:29 22° ENE
Cosmos 1726 Rocket 3.7 17:10:25 10° S 17:14:58 59° E 17:19:28 10° NNE
ERS-1 4.4 17:11:29 10° SSE 17:16:26 66° ENE 17:21:21 10° N
USA 215 3.9 17:12:07 15° ENE 17:17:07 43° N 17:23:13 10° WNW
AQUARIUS 4.1 17:13:35 10° SSE 17:17:55 63° ENE 17:22:18 10° N
Cosmos 2082 4.1 17:12:42 10° NNW 17:18:08 42° NE 17:23:32 10° ESE
SMAP 3.3 17:14:35 10° S 17:19:14 76° WSW 17:23:56 10° NNW
Cosmos 1805 3.8 17:17:49 10° NNE 17:20:45 27° ENE 17:23:39 10° SE
Cosmos 2297 Rocket 4.1 17:16:46 10° NW 17:21:45 33° WSW 17:26:43 10° SSW
Landsat 7 3.8 17:18:43 10° SSE 17:23:22 87° WSW 17:28:03 10° NNW
GEOS 3 Rocket 3.7 17:19:09 16° NE 17:23:32 72° SE 17:28:54 10° SSW
YAOGAN 1 3.2 17:22:28 10° SE 17:26:13 31° ENE 17:29:58 10° N
Cosmos 923 Rocket 4.5 17:22:24 10° N 17:27:11 36° ENE 17:31:57 10° SE
Cosmos 1937 Rocket 4.3 17:24:46 10° SSE 17:29:11 29° E 17:30:51 24° ENE
SL-16 R/B 4.0 17:28:13 10° SE 17:29:25 13° ESE 17:29:25 13° ESE
Cosmos 990 Rocket 4.1 17:28:04 10° SSW 17:33:11 74° WNW 17:38:14 11° NNE
Cosmos 1461 4.2 17:30:11 10° WSW 17:33:41 31° NW 17:36:23 15° NNE
CZ-2D R/B 3.8 17:30:19 10° SE 17:34:15 42° ENE 17:38:08 10° N
SL-16 R/B 3.5 17:29:19 10° N 17:35:15 47° WNW 17:41:06 10° SW
SKYMED 2 3.9 17:35:14 23° NE 17:37:32 43° E 17:41:40 10° S
COSMOS 2455 3.9 17:33:06 10° SSE 17:37:45 24° ESE 17:38:36 23° E
Meteor 2-2 Rocket 4.5 17:32:50 10° SSE 17:38:10 45° E 17:42:47 14° NNE
Okean 1 3.7 17:35:21 10° SSE 17:38:21 33° ESE 17:38:21 33° ESE
SJ-6F 4.4 17:40:38 10° SSE 17:44:37 81° W 17:48:40 10° NNW
Cosmos 1844 Rocket 3.5 17:40:09 10° NNW 17:45:05 30° NE 17:45:49 29° ENE
Cosmos 2219 3.1 17:39:37 10° NNW 17:45:24 75° ENE 17:51:09 10° SSE
Cosmos 1980 Rocket 2.1 17:39:55 10° SSW 17:45:33 74° ESE 17:49:21 21° NNE
Aureole 1 Rocket 3.4 17:42:54 10° SSW 17:47:29 75° ESE 17:51:47 18° NNE
Cosmos 1953 Rocket 3.7 17:43:12 10° NNW 17:47:39 77° W 17:52:05 10° S
Meteor 1-26 Rocket 4.1 17:43:30 10° S 17:48:44 55° E 17:52:49 17° NNE
PSLV R/B 3.6 17:49:59 42° E 17:50:21 43° ENE 17:54:13 10° N
ARIANE 5 R/B 3.4 17:47:27 10° S 17:52:23 52° W 17:57:26 10° NNW
SL-19 R/B 4.3 17:47:58 10° SE 17:53:16 55° ENE 17:58:53 10° N
Cosmos 2263 Rocket 2.5 17:47:54 10° NNW 17:53:33 69° WSW 17:59:11 10° SSE
BREEZE-M DEB (TANK) 3.3 17:53:54 10° SW 17:57:13 32° SSE 17:57:13 32° SSE
COSMO-SKYMED 1 2.7 17:59:08 45° ESE 17:59:08 45° ESE 18:02:49 10° S
Cosmos 1680 Rocket 3.7 17:53:54 10° NNW 17:58:57 47° ENE 18:00:24 37° ESE
NOSS 3-2 (C) 4.2 17:54:30 10° WSW 17:59:30 40° NNW 18:03:20 20° NNE
BREEZE-M DEB (TANK) 3.9 17:55:54 10° WNW 17:59:33 84° SSW 18:06:53 21° ESE
NOAA 15 4.5 17:55:20 10° SSE 18:00:36 74° ENE 18:05:54 10° N
Cosmos 1076 Rocket 4.5 17:58:05 10° NNW 18:02:14 48° W 18:06:23 10° SSW
Meteor 2-10 4.2 17:57:07 10° NNW 18:02:32 80° W 18:08:06 10° S
NOAA 6 4.1 17:57:40 10° SE 18:02:36 52° ENE 18:07:32 10° N
Cosmos 2369 3.7 17:57:37 10° S 18:03:13 60° ESE 18:05:20 37° NE
USA 81 4.2 18:06:24 10° N 18:11:40 72° W 18:16:53 10° S
Cosmos 44 Rocket 3.8 18:07:13 10° NNW 18:11:53 42° NE 18:11:53 42° NE
Cosmos 2227 Rocket 4.2 18:08:36 10° NW 18:13:23 29° WSW 18:18:10 10° SSW
SPOT 1/Viking Rocket 3.9 18:11:16 10° S 18:16:26 66° WSW 18:21:38 10° NNW
Cosmos 2058 Rocket 3.6 18:19:23 10° SSW 18:23:47 58° WNW 18:26:26 23° N
Cosmos 1697 Rocket 4.1 18:20:26 10° WSW 18:25:25 32° NW 18:29:16 16° N
OceanSat 1 rocket 4.5 18:21:18 10° SSE 18:26:02 88° ENE 18:30:46 10° NNW
Cosmos 2333 Rocket 4.0 18:28:05 10° SSE 18:29:34 17° SSE 18:29:34 17° SSE
CENTAUR R/B 4.2 18:27:51 10° NW 18:33:35 26° N 18:35:36 23° NNE
Lacrosse 5 rocket 3.3 18:31:09 10° NW 18:32:26 18° NNW 18:32:26 18° NNW
Meteor 2-11 Rocket 4.3 18:28:26 10° N 18:34:38 90° WNW 18:40:47 10° S
Meteor 1-14 Rocket 4.1 18:33:03 10° N 18:38:51 76° ENE 18:39:10 73° ESE
Resurs 1-3 4.5 18:39:13 10° S 18:43:22 47° W 18:47:32 10° NNW
Cosmos-2242 4.4 18:42:19 10° SW 18:46:15 36° WNW 18:47:46 27° NNW
Cosmos 1898 Rocket 4.4 18:50:31 10° SW 18:55:26 44° WNW 18:56:45 36° NNW
Cosmos 1844 4.2 18:50:36 10° NNW 18:54:37 48° NNW 18:54:37 48° NNW
USA 215 3.6 18:59:28 50° NNE 18:59:28 50° NNE 19:05:44 10° WNW
USA 238 DEB 4.2 18:54:35 10° WSW 19:00:37 49° NW 19:02:15 41° N
Cosmos 2112 Rocket 4.4 18:55:29 10° NNW 18:59:47 58° NW 18:59:47 58° NW
USA 238 4.2 18:54:40 10° WSW 19:00:43 50° NW 19:02:21 41° N
S3M 4.4 18:54:45 10° S 18:59:17 49° S 18:59:17 49° S
YAOGAN 1 4.4 18:58:17 10° SSW 19:02:02 30° W 19:05:49 10° NNW
BREEZE-M DEB (TANK) 3.9 19:01:22 10° SW 19:06:16 46° SSW 19:06:16 46° SSW
Cosmos 1937 Rocket 4.4 19:05:56 10° SW 19:10:52 43° WNW 19:10:58 43° WNW
SL-16 R/B 3.4 19:08:27 10° SSW 19:11:20 32° SSW 19:11:20 32° SSW
Cosmos 1745 Rocket 4.3 19:10:34 10° NNW 19:16:39 63° W 19:22:40 10° S
COSMOS 2455 3.4 19:17:06 10° SW 19:21:46 54° WSW 19:21:46 54° WSW
Cosmos 1844 Rocket 3.8 19:23:46 10° NW 19:27:31 40° NW 19:27:31 40° NW
Cosmos 1980 Rocket 4.0 19:25:32 10° W 19:30:07 25° NW 19:31:07 23° NNW
